Location: Tel Aviv
(32.0670°N, 34.7670°E)
Time: 15:03:15
(UTC+03:00)

TIGRISAT - Visible Passes

Search period start: 17 September 2024 00:00
Search period end: 27 September 2024 00:00
Orbit: 591 x 668 km, 97.7° (Epoch: 16 September)

Date Brightness Start Highest point End Pass type
(mag) Time Alt. Az. Time Alt. Az. Time Alt. Az.
17 Sep ? 04:34:54 86° N 04:34:54 86° N 04:39:03 10° NNW visible
18 Sep ? 03:18:27 10° ENE 03:19:11 10° ENE 03:19:56 10° ENE visible
18 Sep ? 04:55:33 46° WNW 04:55:33 46° WNW 04:59:06 10° NNW visible
19 Sep ? 03:38:50 18° ENE 03:39:08 18° ENE 03:42:03 10° NNE visible
19 Sep ? 05:16:12 25° WNW 05:16:12 25° WNW 05:18:51 10° NW visible
20 Sep ? 03:59:28 31° ENE 03:59:28 31° ENE 04:02:54 10° N visible
20 Sep ? 05:36:51 14° WNW 05:36:51 14° WNW 05:38:03 10° WNW visible
21 Sep ? 04:20:06 45° NNE 04:20:06 45° NNE 04:23:22 10° N visible
22 Sep ? 04:40:43 41° NNW 04:40:43 41° NNW 04:43:34 10° NNW visible
23 Sep ? 03:23:58 12° ENE 03:23:58 12° ENE 03:25:18 10° NE visible
23 Sep ? 05:01:20 26° NW 05:01:20 26° NW 05:03:30 10° NNW visible
24 Sep ? 03:44:35 19° NE 03:44:35 19° NE 03:46:42 10° NNE visible
24 Sep ? 05:21:57 16° NW 05:21:57 16° NW 05:23:06 10° NW visible
25 Sep ? 04:05:11 25° NNE 04:05:11 25° NNE 04:07:23 10° N visible
26 Sep ? 04:25:47 26° N 04:25:47 26° N 04:27:44 10° N visible
